Location: Bruch
(44.2051°N, 0.4120°E)
Time: 04:25:59
(UTC+00:00)

Meteor 1-31 Rocket - Pass Details

Date: 29 November 2020
Orbit: 520 x 546 km, 97.6° (Epoch: 24 January)

Event Time Altitude Azimuth Distance (km) Brightness Sun altitude
Rises 05:36:22 0° 2° (N) 2,690 6.2 -16.6°
Reaches altitude 10° 05:38:41 10° 351° (N) 1,790 5.2 -16.2°
Enters shadow 05:40:21 20° 331° (NNW) 1,253 4.2 -15.9°
